WA2GUG Weather Reports


time (UTC)temp
C
wind
direction
speed
KPH
gust
KPH
rain 1hr
cm
rain 24hr
cm
rain mn
cm
humidity
%
barometer
mb
20260504215919 28 278 0.0 4.8 0.00 0.00 0.00 99 1004.0
20260504215419 28 236 0.0 4.8 0.00 0.00 0.00 99 1004.0
20260504214919 28 275 0.0 0.0 0.00 0.00 0.00 99 1004.1
20260504214419 28 310 0.0 0.0 0.00 0.00 0.00 99 1004.1
20260504213919 28 310 0.0 0.0 0.00 0.00 0.00 99 1004.2
20260504213420 28 275 0.0 0.0 0.00 0.00 0.00 99 1004.1
20260504212919 28 316 0.0 0.0 0.00 0.00 0.00 99 1004.2
20260504212419 28 277 0.0 0.0 0.00 0.00 0.00 99 1004.2
20260504211919 27 276 0.0 14.5 0.00 0.00 0.00 99 1005.0
20260504211419 27 273 1.6 14.5 0.00 0.00 0.00 99 1005.0
20260504210919 28 287 0.0 0.0 0.00 0.00 0.00 99 1005.0
20260504210419 29 313 0.0 0.0 0.00 0.00 0.00 99 1004.2
20260504205919 28 281 0.0 1.6 0.00 0.00 0.00 99 1005.0
20260504205419 27 264 0.0 1.6 0.00 0.00 0.00 99 1004.2
20260504204919 27 290 0.0 0.0 0.00 0.00 0.00 99 1005.0
20260504204419 27 346 0.0 0.0 0.00 0.00 0.00 99 1005.0
20260504203919 27 308 0.0 0.0 0.00 0.00 0.00 99 1005.0
20260504203420 28 51 0.0 8.0 0.00 0.00 0.00 99 1005.0
20260504202919 27 45 1.6 8.0 0.00 0.00 0.00 99 1005.0
20260504202419 26 314 0.0 6.4 0.00 0.00 0.00 99 1005.0
20260504201919 26 345 0.0 0.0 0.00 0.00 0.00 99 1005.0
20260504201419 26 1 0.0 0.0 0.00 0.00 0.00 99 1005.0
20260504200919 27 358 0.0 0.0 0.00 0.00 0.00 99 1005.0
20260504200419 27 279 0.0 3.2 0.00 0.00 0.00 99 1005.0
20260504195919 30 283 0.0 3.2 0.00 0.00 0.00 99 1005.0
20260504195419 31 354 0.0 1.6 0.00 0.00 0.00 99 1005.0
20260504194919 31 7 0.0 0.0 0.00 0.00 0.00 99 1005.0
20260504194419 31 299 0.0 0.0 0.00 0.00 0.00 99 1005.0
20260504193919 30 359 0.0 6.4 0.00 0.00 0.00 99 1005.0
20260504193419 30 316 0.0 6.4 0.00 0.00 0.00 99 1005.0
20260504192919 28 302 0.0 0.0 0.00 0.00 0.00 99 1005.0
20260504192419 27 315 0.0 4.8 0.00 0.00 0.00 99 1005.0
20260504191919 26 3 0.0 4.8 0.00 0.00 0.00 99 1005.0
20260504191419 25 274 0.0 9.7 0.00 0.00 0.00 99 1005.0
20260504190919 26 4 0.0 9.7 0.00 0.00 0.00 99 1005.0
20260504190419 27 356 0.0 8.0 0.00 0.00 0.00 99 1005.0
20260504185919 28 36 0.0 3.2 0.00 0.00 0.00 99 1005.0
20260504185419 28 35 0.0 6.4 0.00 0.00 0.00 99 1005.0
20260504184919 28 8 0.0 6.4 0.00 0.00 0.00 99 1005.0
20260504184419 29 46 0.0 3.2 0.00 0.00 0.00 99 1005.0
20260504183919 30 331 0.0 11.3 0.00 0.00 0.00 99 1005.0
20260504183419 30 13 0.0 11.3 0.00 0.00 0.00 99 1005.0
20260504182919 30 40 0.0 0.0 0.00 0.00 0.00 99 1005.0
20260504182419 29 306 0.0 0.0 0.00 0.00 0.00 99 1005.0
20260504181919 28 353 0.0 6.4 0.00 0.00 0.00 99 1005.0
20260504181419 28 273 0.0 8.0 0.00 0.00 0.00 99 1005.0
20260504180919 28 307 0.0 12.9 0.00 0.00 0.00 99 1005.0
20260504180419 29 1 0.0 12.9 0.00 0.00 0.00 99 1005.0
20260504175419 28 322 0.0 8.0 0.00 0.00 0.00 99 1005.0
20260504174919 27 38 0.0 11.3 0.00 0.00 0.00 99 1005.0
20260504174419 26 321 1.6 11.3 0.00 0.00 0.00 99 1005.0
20260504173919 26 42 0.0 11.3 0.00 0.00 0.00 99 1005.0
20260504173419 27 278 0.0 4.8 0.00 0.00 0.00 99 1005.0
20260504172919 27 310 0.0 0.0 0.00 0.00 0.00 99 1005.0
20260504172419 27 311 0.0 1.6 0.00 0.00 0.00 99 1005.0
20260504171919 27 3 0.0 3.2 0.00 0.00 0.00 99 1005.1
20260504171419 27 353 0.0 9.7 0.00 0.00 0.00 99 1006.0
20260504170919 26 316 0.0 9.7 0.00 0.00 0.00 99 1005.2
20260504170419 25 274 0.0 0.0 0.00 0.00 0.00 99 1005.2
20260504160419 22 359 0.0 8.0 0.00 0.00 0.00 99 1006.0
20260504150919 19 354 0.0 8.0 0.00 0.00 0.00 99 1006.0
20260504150419 19 8 1.6 8.0 0.00 0.00 0.00 99 1006.0
20260504140919 21 6 1.6 16.1 0.00 0.00 0.00 99 1006.2
20260504140419 21 317 0.0 16.1 0.00 0.00 0.00 99 1007.0
20260504130419 17 220 0.0 0.0 0.00 0.00 0.00 99 1006.2
20260504110419 2 243 0.0 0.0 0.00 0.00 0.00 99 1007.0
20260504100419 0 155 0.0 0.0 0.00 0.00 0.00 99 1007.0
20260504081918 2 167 0.0 0.0 0.00 0.00 0.00 99 1007.0
20260504081418 2 274 0.0 0.0 0.00 0.00 0.00 99 1007.0
20260504080918 2 164 0.0 0.0 0.00 0.00 0.00 99 1007.0
20260504080418 2 179 0.0 0.0 0.00 0.00 0.00 99 1007.0
20260504050418 5 178 0.0 0.0 0.00 0.00 0.00 99 1008.0
20260504045918 5 90 0.0 0.0 0.00 0.00 0.00 99 1008.0
20260504045418 5 90 0.0 0.0 0.00 0.00 0.00 99 1007.2
20260504044918 5 90 0.0 0.0 0.00 0.00 0.00 99 1007.2
20260504044418 5 144 0.0 0.0 0.00 0.00 0.00 99 1008.0
20260504043918 5 171 0.0 0.0 0.00 0.00 0.00 99 1007.2
20260504043418 5 203 0.0 0.0 0.00 0.00 0.00 99 1008.0
20260504042918 5 293 0.0 0.0 0.00 0.00 0.00 99 1007.2
20260504042418 5 169 0.0 0.0 0.00 0.00 0.00 99 1008.0
20260504041918 5 78 0.0 0.0 0.00 0.00 0.00 99 1007.2
20260504041418 4 45 0.0 0.0 0.00 0.00 0.00 99 1008.0
20260504040918 4 45 0.0 0.0 0.00 0.00 0.00 99 1007.2
20260504040418 4 150 0.0 0.0 0.00 0.00 0.00 99 1008.0
20260504035918 4 180 0.0 0.0 0.00 0.00 0.00 99 1007.2
20260504035418 4 180 0.0 0.0 0.00 0.00 0.00 99 1008.0
20260504034918 3 202 0.0 0.0 0.00 0.00 0.00 99 1007.2
20260504034418 3 227 0.0 0.0 0.00 0.00 0.00 99 1008.0
20260504033918 3 247 0.0 0.0 0.00 0.00 0.00 99 1007.2
20260504033418 3 247 0.0 0.0 0.00 0.00 0.00 99 1008.0
20260504032918 3 102 0.0 0.0 0.00 0.00 0.00 99 1007.2
20260504032418 3 227 0.0 0.0 0.00 0.00 0.00 99 1008.0
20260504031918 3 262 0.0 0.0 0.00 0.00 0.00 99 1008.0
20260504031418 2 37 0.0 0.0 0.00 0.00 0.00 99 1007.2
20260504030918 2 77 0.0 0.0 0.00 0.00 0.00 99 1007.2
20260504030418 2 117 0.0 0.0 0.00 0.00 0.00 99 1008.0
20260504025918 2 135 0.0 0.0 0.00 0.00 0.00 99 1007.2
20260504025418 2 117 0.0 0.0 0.00 0.00 0.00 99 1007.2
20260504024918 2 115 0.0 0.0 0.00 0.00 0.00 99 1007.1
20260504024418 2 124 0.0 0.0 0.00 0.00 0.00 99 1007.1
20260504023918 2 180 0.0 0.0 0.00 0.00 0.00 99 1007.1
20260504023418 2 180 0.0 0.0 0.00 0.00 0.00 99 1007.0
20260504022918 3 197 0.0 0.0 0.00 0.00 0.00 99 1007.1
20260504022418 3 202 0.0 0.0 0.00 0.00 0.00 99 1007.2
20260504021918 3 189 0.0 0.0 0.00 0.00 0.00 99 1007.2
20260504021418 3 180 0.0 0.0 0.00 0.00 0.00 99 1007.2
20260504020918 4 189 0.0 0.0 0.00 0.00 0.00 99 1007.2
20260504020418 4 208 0.0 0.0 0.00 0.00 0.00 99 1007.2
20260504015918 5 47 0.0 0.0 0.00 0.00 0.00 99 1007.2
20260504015418 5 139 0.0 0.0 0.00 0.00 0.00 99 1008.0
20260504014918 5 147 0.0 0.0 0.00 0.00 0.00 99 1007.2
20260504014418 5 214 0.0 0.0 0.00 0.00 0.00 99 1008.0
20260504013918 5 225 0.0 0.0 0.00 0.00 0.00 99 1007.2
20260504013418 5 225 0.0 0.0 0.00 0.00 0.00 99 1007.1
20260504012918 5 225 0.0 0.0 0.00 0.00 0.00 99 1007.0
20260504012418 6 225 0.0 0.0 0.00 0.00 0.00 99 1007.0
20260504011918 6 225 0.0 0.0 0.00 0.00 0.00 99 1007.0
20260504011418 6 232 0.0 0.0 0.00 0.00 0.00 99 1007.0
20260504010918 6 195 0.0 0.0 0.00 0.00 0.00 99 1007.0
20260504010418 7 180 0.0 0.0 0.00 0.00 0.00 99 1007.0
20260504005918 7 180 0.0 0.0 0.00 0.00 0.00 99 1007.0
20260504005418 7 164 0.0 0.0 0.00 0.00 0.00 99 1007.0
20260504004918 7 177 0.0 0.0 0.00 0.00 0.00 99 1007.0
20260504004418 8 159 0.0 0.0 0.00 0.00 0.00 99 1007.0
20260504003918 8 159 0.0 0.0 0.00 0.00 0.00 99 1007.0
20260504003418 9 137 0.0 0.0 0.00 0.00 0.00 99 1007.0
20260504002918 9 355 0.0 0.0 0.00 0.00 0.00 99 1007.0
20260504002418 9 80 0.0 0.0 0.00 0.00 0.00 99 1007.0
20260504001918 10 102 0.0 0.0 0.00 0.00 0.00 99 1006.2
20260504001418 10 79 0.0 0.0 0.00 0.00 0.00 99 1007.0
20260504000918 10 47 0.0 1.6 0.00 0.00 0.00 99 1006.2
20260504000418 10 28 0.0 3.2 0.00 0.00 0.00 99 1007.0
20260503235918 11 355 0.0 3.2 0.00 0.00 0.00 99 1006.2
20260503235418 11 122 0.0 0.0 0.00 0.00 0.00 99 1007.0
20260503234918 11 82 0.0 0.0 0.00 0.00 0.00 99 1006.2
20260503234418 11 75 0.0 0.0 0.00 0.00 0.00 99 1007.0
20260503233918 11 54 0.0 0.0 0.00 0.00 0.00 99 1006.2
20260503233418 12 49 0.0 0.0 0.00 0.00 0.00 99 1007.0
20260503232918 12 53 0.0 0.0 0.00 0.00 0.00 99 1006.2
20260503232418 12 45 0.0 6.4 0.00 0.00 0.00 99 1007.0
20260503231918 12 47 0.0 6.4 0.00 0.00 0.00 99 1006.2
20260503231418 12 34 0.0 3.2 0.00 0.00 0.00 99 1007.0
20260503230918 12 36 0.0 6.4 0.00 0.00 0.00 99 1006.2
20260503230418 12 53 0.0 6.4 0.00 0.00 0.00 99 1006.2
20260503225918 12 5 0.0 8.0 0.00 0.00 0.00 99 1006.1
20260503225418 12 86 1.6 8.0 0.00 0.00 0.00 99 1006.1
20260503224918 12 39 0.0 6.4 0.00 0.00 0.00 99 1006.0
20260503224418 12 45 0.0 6.4 0.00 0.00 0.00 99 1006.0
20260503223918 12 74 1.6 6.4 0.00 0.00 0.00 99 1006.0
20260503223418 13 44 0.0 6.4 0.00 0.00 0.00 99 1006.0
20260503222918 13 55 1.6 6.4 0.00 0.00 0.00 99 1006.0
20260503222418 13 34 0.0 6.4 0.00 0.00 0.00 99 1006.0
20260503221918 13 45 0.0 6.4 0.00 0.00 0.00 99 1006.0
20260503221418 13 87 0.0 6.4 0.00 0.00 0.00 99 1006.0
20260503220918 15 42 0.0 12.9 0.00 0.00 0.00 99 1006.0
20260503220418 16 68 1.6 12.9 0.00 0.00 0.00 99 1006.0